Aérodrome :
LOGIN :

S'inscrire | Disclaimer

   EN    FR    IT 

 










Légende :    VFR   VFR Marginal   IFR   IFR Intensif   IFR Très Intensif
Visi : 
Plafond : 
>= 8 km
>= 3000ft
5 à 8 km
1000 à 3000 ft
1500m à 5 km
500 à 1000 ft
800 à 1500m
200 à 500 ft
< 800m
< 200 ft
Symboles :   Orages  Brouillard  Fortes neiges  Fortes précipitations  Vent > 20 kt
SIGMETs :   Divers  Orages  Givrage  Turbulence  Onde Orograph.  Cendres Volcan.






- Altitude de l'aérodrome : 474 ft
- Code IATA : HFS


ESOH - Hagfors

DERNIER METAR :
  • 080220Z AUTO 30001KT 0900 R18/P2000N FG BKN057/// 05/05 Q1002

METARs EXPIRÉS :
  • 080150Z AUTO 00000KT 0250 R18/0800N FG SCT098/// 05/05 Q1002 RERA
  • 080120Z AUTO 00000KT 5000 -RA FEW055/// SCT078/// BKN098/// 06/06 Q1002
  • 080050Z AUTO 00000KT 7000 FEW062/// SCT088/// 06/06 Q1002
  • 080020Z AUTO 01002KT 9999 BKN064/// OVC096/// 06/06 Q1003
  • 072350Z AUTO 00000KT 0250 R18/0700N FG FEW098/// 06/06 Q1003

TAF N/A



MET'MAP, la Météo Aéronautique d'un coup d'oeil ! - Copyright ORBIFLY Décembre 2007 - Disclaimer

ORBIFLY MET'MAP TEAM :

Programmation & Développement : Alexandra Zaïnal
Sur une idée originale de : Baudouin d'Aumeries
Assistance à la programmation : Marc-Olivier Méhu
Soutien technique & logistique : Manuel Goepfert

Contact : metmap@orbifly.com




SOURCES & CREDITS :

   NOAA